| time (UTC) | temp C | wind direction | speed KPH | gust KPH | rain 1hr cm | rain 24hr cm | rain mn cm | humidity % | barometer mb |
| 20260508103750 | 6 | 320 | 0.0 | 0.0 | 0.00 | 0.00 | 0.00 | 86 | 1013.9 |
| 20260508102809 | 6 | 320 | 0.0 | 0.0 | 0.00 | 0.00 | 0.00 | 84 | 1013.8 |
| 20260508101742 | 6 | 320 | 0.0 | 0.0 | 0.00 | 0.00 | 0.00 | 83 | 1013.7 |
| 20260508100755 | 6 | 320 | 0.0 | 0.0 | 0.00 | 0.00 | 0.00 | 83 | 1013.6 |
| 20260508095819 | 6 | 320 | 0.0 | 0.0 | 0.00 | 0.00 | 0.00 | 81 | 1013.5 |
| 20260508092544 | 7 | 320 | 0.0 | 0.0 | 0.00 | 0.00 | 0.00 | 78 | 1013.4 |
| 20260508091522 | 7 | 320 | 0.0 | 0.0 | 0.00 | 0.00 | 0.00 | 77 | 1013.4 |
| 20260508090520 | 7 | 320 | 0.0 | 0.0 | 0.00 | 0.00 | 0.00 | 77 | 1013.3 |
| 20260508085453 | 8 | 320 | 0.0 | 0.0 | 0.00 | 0.00 | 0.00 | 80 | 1013.2 |
| 20260508083336 | 8 | 320 | 0.0 | 0.0 | 0.00 | 0.00 | 0.00 | 79 | 1013.0 |
| 20260508082334 | 8 | 320 | 0.0 | 0.0 | 0.00 | 0.00 | 0.00 | 79 | 1012.8 |
| 20260508081316 | 8 | 320 | 0.0 | 0.0 | 0.00 | 0.00 | 0.00 | 77 | 1012.8 |
| 20260508080304 | 8 | 320 | 0.0 | 0.0 | 0.00 | 0.00 | 0.00 | 78 | 1012.7 |
| 20260508075300 | 8 | 320 | 0.0 | 0.0 | 0.00 | 0.00 | 0.00 | 76 | 1012.5 |
| 20260508074302 | 9 | 320 | 0.0 | 0.0 | 0.00 | 0.00 | 0.00 | 76 | 1012.4 |
| 20260508073322 | 9 | 320 | 0.0 | 0.0 | 0.00 | 0.00 | 0.00 | 75 | 1012.3 |
| 20260508072311 | 10 | 320 | 0.0 | 0.0 | 0.00 | 0.00 | 0.00 | 76 | 1012.1 |
| 20260508070157 | 10 | 320 | 0.0 | 0.0 | 0.00 | 0.00 | 0.00 | 70 | 1011.9 |
| 20260508065210 | 11 | 320 | 0.0 | 0.0 | 0.00 | 0.00 | 0.00 | 70 | 1011.8 |
| 20260508064201 | 11 | 320 | 0.0 | 0.0 | 0.00 | 0.00 | 0.00 | 69 | 1011.6 |
| 20260508063200 | 11 | 320 | 0.0 | 0.0 | 0.00 | 0.00 | 0.00 | 69 | 1011.5 |
| 20260508062143 | 11 | 320 | 0.0 | 6.4 | 0.00 | 0.00 | 0.00 | 69 | 1011.4 |
| 20260508061205 | 10 | 322 | 0.0 | 0.0 | 0.00 | 0.00 | 0.00 | 72 | 1011.4 |
| 20260508060158 | 10 | 269 | 0.0 | 4.8 | 0.00 | 0.00 | 0.00 | 80 | 1011.4 |
| 20260508055209 | 10 | 268 | 0.0 | 0.0 | 0.00 | 0.00 | 0.00 | 81 | 1011.3 |
| 20260508054147 | 10 | 268 | 0.0 | 0.0 | 0.00 | 0.00 | 0.00 | 80 | 1011.3 |
| 20260508053139 | 11 | 268 | 0.0 | 0.0 | 0.00 | 0.03 | 0.00 | 80 | 1011.3 |
| 20260508052203 | 10 | 268 | 0.0 | 6.4 | 0.00 | 0.03 | 0.00 | 81 | 1011.3 |
| 20260508051221 | 10 | 269 | 0.0 | 6.4 | 0.00 | 0.03 | 0.00 | 82 | 1011.2 |
| 20260508045059 | 11 | 265 | 0.0 | 0.0 | 0.00 | 0.03 | 0.00 | 83 | 1011.0 |
| 20260508044038 | 11 | 265 | 0.0 | 0.0 | 0.00 | 0.03 | 0.00 | 84 | 1010.9 |
| 20260508043027 | 11 | 265 | 0.0 | 1.6 | 0.00 | 0.05 | 0.00 | 83 | 1010.8 |
| 20260508040925 | 11 | 264 | 0.0 | 0.0 | 0.00 | 0.10 | 0.00 | 82 | 1010.6 |
| 20260508035920 | 11 | 264 | 0.0 | 0.0 | 0.00 | 0.10 | 0.10 | 81 | 1010.5 |
| 20260508034937 | 11 | 280 | 0.0 | 4.8 | 0.00 | 0.10 | 0.10 | 81 | 1010.3 |
| 20260508033944 | 11 | 263 | 0.0 | 6.4 | 0.00 | 0.10 | 0.10 | 80 | 1010.3 |
| 20260508031757 | 11 | 251 | 0.0 | 6.4 | 0.00 | 0.10 | 0.10 | 78 | 1010.3 |
| 20260508030752 | 11 | 223 | 0.0 | 1.6 | 0.00 | 0.10 | 0.10 | 77 | 1010.2 |
| 20260508025810 | 11 | 223 | 0.0 | 0.0 | 0.00 | 0.10 | 0.10 | 76 | 1010.2 |
| 20260508024803 | 12 | 224 | 0.0 | 1.6 | 0.00 | 0.10 | 0.10 | 75 | 1010.2 |
| 20260508023821 | 12 | 229 | 0.0 | 4.8 | 0.00 | 0.10 | 0.10 | 74 | 1010.2 |
| 20260508022810 | 12 | 229 | 0.0 | 4.8 | 0.00 | 0.10 | 0.10 | 74 | 1010.2 |
| 20260508021824 | 12 | 228 | 0.0 | 3.2 | 0.00 | 0.10 | 0.10 | 73 | 1010.1 |
| 20260508020757 | 12 | 257 | 0.0 | 3.2 | 0.00 | 0.10 | 0.10 | 73 | 1010.0 |
| 20260508015808 | 12 | 210 | 1.6 | 6.4 | 0.00 | 0.10 | 0.10 | 73 | 1010.1 |
| 20260508014743 | 12 | 223 | 0.0 | 8.0 | 0.00 | 0.10 | 0.10 | 72 | 1010.0 |
| 20260508012602 | 12 | 171 | 0.0 | 6.4 | 0.00 | 0.10 | 0.10 | 71 | 1009.8 |
| 20260508011602 | 12 | 209 | 0.0 | 1.6 | 0.00 | 0.10 | 0.10 | 70 | 1009.7 |
| 20260508005411 | 13 | 202 | 1.6 | 9.7 | 0.00 | 0.10 | 0.10 | 69 | 1009.4 |
| 20260508003224 | 13 | 182 | 1.6 | 12.9 | 0.00 | 0.10 | 0.10 | 67 | 1009.1 |
| 20260508001033 | 13 | 173 | 3.2 | 9.7 | 0.00 | 0.10 | 0.10 | 65 | 1008.9 |
| 20260507235958 | 13 | 166 | 4.8 | 8.0 | 0.00 | 0.10 | 0.10 | 64 | 1008.8 |
| 20260507233847 | 14 | 187 | 3.2 | 12.9 | 0.00 | 0.10 | 0.10 | 61 | 1008.4 |
| 20260507232858 | 15 | 109 | 1.6 | 14.5 | 0.00 | 0.10 | 0.10 | 60 | 1008.3 |
| 20260507231855 | 15 | 215 | 3.2 | 14.5 | 0.00 | 0.10 | 0.10 | 60 | 1008.2 |
| 20260507230911 | 15 | 252 | 4.8 | 14.5 | 0.00 | 0.10 | 0.10 | 59 | 1008.1 |
| 20260507225918 | 15 | 199 | 3.2 | 16.1 | 0.00 | 0.10 | 0.10 | 58 | 1008.0 |
| 20260507224854 | 16 | 264 | 4.8 | 16.1 | 0.00 | 0.10 | 0.10 | 56 | 1007.9 |
| 20260507223851 | 16 | 202 | 4.8 | 16.1 | 0.00 | 0.10 | 0.10 | 54 | 1007.8 |
| 20260507222900 | 16 | 215 | 4.8 | 16.1 | 0.00 | 0.10 | 0.10 | 53 | 1007.7 |
| 20260507221853 | 16 | 238 | 3.2 | 11.3 | 0.00 | 0.10 | 0.10 | 53 | 1007.6 |
| 20260507220911 | 16 | 195 | 6.4 | 17.7 | 0.00 | 0.10 | 0.10 | 53 | 1007.6 |
| 20260507215839 | 16 | 196 | 4.8 | 17.7 | 0.00 | 0.10 | 0.10 | 53 | 1007.5 |
| 20260507214816 | 16 | 158 | 6.4 | 16.1 | 0.00 | 0.10 | 0.10 | 55 | 1007.5 |
| 20260507212656 | 16 | 166 | 4.8 | 19.3 | 0.00 | 0.10 | 0.10 | 53 | 1007.7 |
| 20260507211652 | 16 | 237 | 6.4 | 19.3 | 0.00 | 0.10 | 0.10 | 53 | 1007.8 |
| 20260507210637 | 17 | 128 | 6.4 | 16.1 | 0.00 | 0.10 | 0.10 | 53 | 1007.7 |
| 20260507205639 | 17 | 189 | 6.4 | 16.1 | 0.00 | 0.10 | 0.10 | 53 | 1007.7 |
| 20260507204647 | 17 | 255 | 6.4 | 16.1 | 0.00 | 0.10 | 0.10 | 51 | 1007.6 |
| 20260507203651 | 17 | 180 | 4.8 | 17.7 | 0.00 | 0.10 | 0.10 | 50 | 1007.7 |
| 20260507202649 | 17 | 150 | 6.4 | 17.7 | 0.00 | 0.10 | 0.10 | 50 | 1007.6 |
| 20260507200540 | 17 | 225 | 4.8 | 12.9 | 0.00 | 0.10 | 0.10 | 51 | 1007.7 |
| 20260507195554 | 17 | 279 | 6.4 | 16.1 | 0.00 | 0.10 | 0.10 | 51 | 1007.6 |
| 20260507194606 | 17 | 186 | 4.8 | 16.1 | 0.00 | 0.10 | 0.10 | 50 | 1007.5 |
| 20260507193629 | 17 | 142 | 3.2 | 17.7 | 0.00 | 0.10 | 0.10 | 49 | 1007.7 |
| 20260507192629 | 17 | 191 | 3.2 | 17.7 | 0.00 | 0.10 | 0.10 | 48 | 1008.0 |
| 20260507191613 | 18 | 134 | 3.2 | 9.7 | 0.00 | 0.10 | 0.10 | 45 | 1008.2 |
| 20260507185455 | 18 | 258 | 1.6 | 11.3 | 0.00 | 0.10 | 0.10 | 42 | 1008.5 |
| 20260507184449 | 17 | 159 | 1.6 | 6.4 | 0.00 | 0.10 | 0.10 | 43 | 1008.4 |
| 20260507183443 | 16 | 111 | 3.2 | 9.7 | 0.00 | 0.10 | 0.10 | 44 | 1008.6 |
| 20260507182442 | 16 | 165 | 3.2 | 9.7 | 0.00 | 0.10 | 0.10 | 44 | 1008.9 |
| 20260507181455 | 16 | 82 | 4.8 | 9.7 | 0.00 | 0.10 | 0.10 | 44 | 1008.9 |
| 20260507180454 | 16 | 89 | 1.6 | 8.0 | 0.00 | 0.10 | 0.10 | 45 | 1009.2 |
| 20260507175510 | 16 | 144 | 0.0 | 0.0 | 0.00 | 0.10 | 0.10 | 45 | 1009.3 |
| 20260507174450 | 16 | 84 | 3.2 | 8.0 | 0.00 | 0.10 | 0.10 | 46 | 1009.3 |
| 20260507173427 | 16 | 115 | 0.0 | 4.8 | 0.00 | 0.10 | 0.10 | 46 | 1009.5 |
| 20260507172424 | 16 | 105 | 0.0 | 1.6 | 0.00 | 0.10 | 0.10 | 48 | 1009.9 |
| 20260507171353 | 15 | 112 | 0.0 | 8.0 | 0.00 | 0.10 | 0.10 | 47 | 1010.0 |
| 20260507170353 | 15 | 93 | 0.0 | 6.4 | 0.00 | 0.10 | 0.10 | 47 | 1010.2 |
| 20260507165345 | 15 | 127 | 0.0 | 9.7 | 0.00 | 0.10 | 0.10 | 47 | 1010.5 |
| 20260507164358 | 15 | 95 | 1.6 | 9.7 | 0.00 | 0.10 | 0.10 | 46 | 1010.3 |
| 20260507163337 | 15 | 96 | 0.0 | 6.4 | 0.00 | 0.10 | 0.10 | 47 | 1010.5 |
| 20260507162352 | 15 | 5 | 0.0 | 6.4 | 0.00 | 0.10 | 0.10 | 48 | 1010.6 |
| 20260507161402 | 15 | 311 | 0.0 | 1.6 | 0.00 | 0.10 | 0.10 | 56 | 1010.7 |
| 20260507160418 | 14 | 311 | 0.0 | 1.6 | 0.00 | 0.10 | 0.10 | 54 | 1010.9 |
| 20260507155356 | 14 | 311 | 0.0 | 0.0 | 0.00 | 0.10 | 0.10 | 57 | 1011.0 |
| 20260507154408 | 13 | 311 | 0.0 | 6.4 | 0.00 | 0.10 | 0.10 | 54 | 1010.9 |
| 20260507153429 | 13 | 257 | 0.0 | 1.6 | 0.00 | 0.10 | 0.10 | 57 | 1011.2 |
| 20260507151257 | 13 | 257 | 0.0 | 4.8 | 0.00 | 0.13 | 0.10 | 58 | 1011.1 |
| 20260507150240 | 13 | 248 | 0.0 | 1.6 | 0.00 | 0.18 | 0.10 | 59 | 1011.3 |
| 20260507143000 | 12 | 284 | 0.0 | 0.0 | 0.00 | 0.25 | 0.10 | 69 | 1011.7 |
| 20260507142001 | 12 | 284 | 0.0 | 0.0 | 0.00 | 0.30 | 0.10 | 67 | 1011.7 |
| 20260507140957 | 12 | 284 | 0.0 | 0.0 | 0.00 | 0.30 | 0.10 | 70 | 1011.8 |
| 20260507140008 | 12 | 226 | 0.0 | 0.0 | 0.00 | 0.43 | 0.10 | 71 | 1011.8 |
| 20260507135024 | 12 | 226 | 0.0 | 0.0 | 0.00 | 0.51 | 0.10 | 71 | 1011.8 |
| 20260507134011 | 12 | 226 | 0.0 | 0.0 | 0.00 | 0.56 | 0.10 | 73 | 1012.0 |
| 20260507133010 | 12 | 226 | 0.0 | 0.0 | 0.00 | 0.64 | 0.10 | 74 | 1012.1 |
| 20260507131941 | 12 | 226 | 0.0 | 0.0 | 0.00 | 0.76 | 0.10 | 75 | 1011.8 |
| 20260507130951 | 12 | 226 | 0.0 | 0.0 | 0.00 | 0.81 | 0.10 | 76 | 1011.9 |
| 20260507130006 | 12 | 226 | 0.0 | 0.0 | 0.00 | 0.81 | 0.10 | 73 | 1011.6 |
| 20260507125016 | 12 | 222 | 0.0 | 0.0 | 0.00 | 0.81 | 0.10 | 73 | 1011.7 |
| 20260507124003 | 12 | 222 | 0.0 | 0.0 | 0.00 | 0.81 | 0.10 | 73 | 1011.8 |
| 20260507122940 | 12 | 222 | 0.0 | 0.0 | 0.00 | 0.81 | 0.10 | 77 | 1012.0 |
| 20260507121937 | 12 | 333 | 0.0 | 0.0 | 0.00 | 0.86 | 0.10 | 80 | 1011.6 |
| 20260507121001 | 12 | 333 | 0.0 | 1.6 | 0.00 | 0.89 | 0.10 | 82 | 1011.7 |
| 20260507120014 | 12 | 333 | 0.0 | 0.0 | 0.00 | 0.89 | 0.10 | 87 | 1011.6 |
| 20260507115022 | 12 | 333 | 0.0 | 0.0 | 0.00 | 0.89 | 0.10 | 87 | 1011.4 |
| 20260507114018 | 12 | 333 | 0.0 | 1.6 | 0.00 | 0.89 | 0.10 | 86 | 1011.3 |
| 20260507112958 | 12 | 333 | 0.0 | 0.0 | 0.00 | 0.89 | 0.10 | 90 | 1011.2 |
| 20260507111937 | 12 | 333 | 0.0 | 0.0 | 0.00 | 0.89 | 0.10 | 89 | 1011.3 |
| 20260507110930 | 12 | 333 | 0.0 | 0.0 | 0.00 | 0.89 | 0.10 | 89 | 1011.1 |
| 20260507105922 | 12 | 333 | 0.0 | 0.0 | 0.00 | 0.89 | 0.10 | 89 | 1011.2 |